Location: Ash Swamp
(41.5170°N, 74.6157°W)
Time: 16:55:25
(UTC+00:00)

CZ-4B R/B - Pass Details

Date: 14 July 2020
Orbit: 390 x 465 km, 97.6° (Epoch: 05 August)

Event Time Altitude Azimuth Distance (km) Brightness Sun altitude
Rises 08:21:31 0° 133° (SE) 2,485 5.2 -12.1°
Reaches altitude 10° 08:23:57 10° 115° (ESE) 1,618 4.5 -11.8°
Maximum altitude 08:26:28 19° 68° (ENE) 1,175 4.5 -11.5°
Drops below altitude 10° 08:28:59 10° 22° (NNE) 1,627 5.3 -11.1°
Sets 08:31:27 0° 4° (N) 2,503 5.9 -10.8°
